Weather History for Piney Island, NC

Change the Weather History Date:

Saturday, March 9, 2013

  Actual Average (KMRH) Record (KMRH)
Temperature  
Mean Temperature 51 °F -  
Max Temperature 59 °F 61 °F 78 °F (1974)
Min Temperature 43 °F 40 °F 24 °F (1969)
Degree Days  
Heating Degree Days 14    
Growing Degree Days 1 (Base 50)    
Moisture  
Dew Point 34 °F    
Average Humidity 58    
Maximum Humidity 77    
Minimum Humidity 35    
Precipitation  
Precipitation 0.00 in - - ()
Sea Level Pressure  
Sea Level Pressure 30.26 in    
Wind  
Wind Speed 15 mph (North)    
Max Wind Speed 21 mph    
Max Gust Speed 26 mph    
Averages and records for this station are not official NWS values.
T = Trace of Precipitation, MM = Missing Value Source: NWS Daily Summary

Daily Weather History Graph

Daily Weather History Graph

Search for Another Location

Airport:

Trip Planner

Search our weather history database for the weather conditions in past years. The results will help you decide how hot, cold, wet, or windy it might be!

Date:

Astronomy

Mar. 09, 2013 Rise Set
Actual Time 6:24 AM EST 6:08 PM EST
Civil Twilight 5:59 AM EST 6:33 PM EST
Nautical Twilight 5:29 AM EST 7:03 PM EST
Astronomical Twilight 5:00 AM EST 7:32 PM EST
Moon 4:42 AM EST (3/9) 4:11 PM EST (3/9)
Length of Visible Light 12h 34m
Length of Day
11h 44m
Waning Crescent, 5% of the Moon is Illuminated
Mar 9
Waning Crescent
Mar 11
New
Mar 19
First Quarter
Mar 27
Full
Apr 3
Last Quarter

Hourly Weather History & Observations

Time (EST) Temp. Windchill Dew Point Humidity Pressure Visibility Wind Dir Wind Speed Gust Speed Precip Events Conditions
12:56 AM 46.0 °F 39.3 °F 32.0 °F 58% 30.21 in - NNW 16.1 mph - N/A   Clear
1:56 AM 45.0 °F 36.9 °F 32.0 °F 60% 30.21 in - NNW 20.7 mph 25.3 mph N/A   Clear
2:56 AM 45.0 °F 37.6 °F 33.1 °F 63% 30.20 in - NNW 17.3 mph 24.2 mph N/A   Clear
3:56 AM 44.1 °F 36.5 °F 32.0 °F 63% 30.20 in - NNW 17.3 mph - N/A   Clear
4:56 AM 44.1 °F 36.2 °F 32.0 °F 63% 30.22 in - NNW 18.4 mph 25.3 mph N/A   Clear
5:56 AM 43.0 °F 35.4 °F 32.0 °F 65% 30.24 in - NNW 16.1 mph 23.0 mph N/A   Clear
6:56 AM 43.0 °F 35.4 °F 32.0 °F 65% 30.25 in - NNW 16.1 mph 23.0 mph N/A   Clear
7:56 AM 44.1 °F 36.2 °F 32.0 °F 63% 30.27 in - NNW 18.4 mph 25.3 mph N/A   Clear
8:56 AM 46.0 °F 39.0 °F 30.9 °F 56% 30.27 in - North 17.3 mph 26.5 mph N/A   Clear
9:56 AM 48.0 °F - 30.9 °F 52% 30.28 in - NNW 17.3 mph - N/A   Clear
10:56 AM 50.0 °F - 30.9 °F 48% 30.27 in - North 17.3 mph - N/A   Clear
11:56 AM 53.1 °F - 32.0 °F 45% 30.27 in - NNW 15.0 mph - N/A   Clear
12:56 PM 55.0 °F - 33.1 °F 43% 30.26 in - NNW 16.1 mph - N/A   Clear
1:56 PM 55.9 °F - 33.1 °F 42% 30.25 in - NNW 16.1 mph - N/A   Clear
2:56 PM 57.9 °F - 33.1 °F 39% 30.24 in - NNW 13.8 mph - N/A   Clear
3:56 PM 59.0 °F - 33.1 °F 38% 30.25 in - NNW 13.8 mph - N/A   Clear
4:56 PM 57.9 °F - 30.0 °F 35% 30.24 in - North 9.2 mph - N/A   Clear
5:56 PM 54.0 °F - 36.0 °F 51% 30.26 in - North 4.6 mph - N/A   Clear
6:56 PM 48.9 °F - 41.0 °F 74% 30.28 in - ESE 3.5 mph - N/A   Clear
7:56 PM 48.9 °F - 39.9 °F 71% 30.30 in - SE 3.5 mph - N/A   Clear
8:56 PM 48.0 °F - 41.0 °F 77% 30.30 in - ENE 5.8 mph - N/A   Clear
9:56 PM 48.9 °F - 39.9 °F 71% 30.31 in - NE 4.6 mph - N/A   Clear
10:56 PM 46.9 °F - 39.9 °F 77% 30.31 in - NE 8.1 mph - N/A   Clear
11:56 PM 46.0 °F 42.5 °F 36.0 °F 68% 30.30 in - NE 6.9 mph - N/A   Clear